Buffalo, WY

9:33 AM MDT on March 28, 2017 (GMT -0600)
Johnson County

Weather History for KBYG - April, 2014

Change the Weather History Date:

Monday, April 28, 2014

  Actual Average Record
Temperature  
Mean Temperature 42 °F 47 °F  
Max Temperature 47 °F 58 °F 79 °F (2007)
Min Temperature 36 °F 37 °F 19 °F (2005)
Degree Days  
Heating Degree Days 23 18  
Month to date heating degree days 613 619  
Since 1 July heating degree days 6853 6809  
Cooling Degree Days 0 0  
Month to date cooling degree days 0 0  
Year to date cooling degree days 0 0  
Moisture  
Dew Point 25 °F    
Average Humidity 57    
Maximum Humidity 76    
Minimum Humidity 38    
Precipitation  
Precipitation T in 0.09 in 0.57 in (2012)
Month to date precipitation 0.95 1.13  
Year to date precipitation 1.92 2.82  
Sea Level Pressure  
Sea Level Pressure 29.86 in    
Wind  
Wind Speed 28 mph (NNW)    
Max Wind Speed 47 mph    
Max Gust Speed 58 mph    
Visibility 10 miles    
Events Rain , Snow    
T = Trace of Precipitation, MM = Missing Value Source: NWS Daily Summary

Daily Weather History Graph

Daily Weather History Graph

Search for Another Location

Airport or City:

Trip Planner

Search our weather history database for the weather conditions in past years. The results will help you decide how hot, cold, wet, or windy it might be!

Date:

Astronomy

Apr. 28, 2014 Rise Set
Actual Time 6:01 AM MDT 8:07 PM MDT
Civil Twilight 5:30 AM MDT 8:39 PM MDT
Nautical Twilight 4:51 AM MDT 9:18 PM MDT
Astronomical Twilight 4:08 AM MDT 10:01 PM MDT
Moon 5:44 AM MDT 7:47 PM MDT
Length of Visible Light 15h 08m
Length of Day
14h 05m
Waning Crescent, 0% of the Moon is Illuminated
Apr 28
Waning Crescent
Apr 29
New
May 6
First Quarter
May 14
Full
May 21
Last Quarter

Hourly Weather History & Observations

Time (MDT) Temp. Windchill Dew Point Humidity Pressure Visibility Wind Dir Wind Speed Gust Speed Precip Events Conditions
2:53 AM 36.0 °F 29.0 °F 27.0 °F 70% 29.65 in 10.0 mi NNW 9.2 mph - N/A   Clear
4:53 AM 39.9 °F 30.0 °F 21.9 °F 49% 29.66 in 10.0 mi NW 21.9 mph 31.1 mph N/A   Mostly Cloudy
5:53 AM 39.0 °F 29.9 °F 21.9 °F 50% 29.70 in 10.0 mi NNW 17.3 mph 27.6 mph N/A   Overcast
6:53 AM 37.0 °F 26.2 °F 27.0 °F 67% 29.73 in 10.0 mi NNW 21.9 mph 27.6 mph N/A   Overcast
8:53 AM 37.9 °F 26.3 °F 25.0 °F 60% 29.79 in 10.0 mi NNW 26.5 mph 41.4 mph N/A   Overcast
9:53 AM 37.9 °F 27.1 °F 25.0 °F 60% 29.81 in 5.0 mi NNW 23.0 mph 41.4 mph 0.00 in Snow Light Snow
10:53 AM 41.0 °F 29.8 °F 24.1 °F 51% 29.81 in 10.0 mi NNW 29.9 mph 43.7 mph 0.00 in   Mostly Cloudy
11:53 AM 44.1 °F 34.6 °F 23.0 °F 43% 29.81 in 10.0 mi NNW 26.5 mph 42.6 mph N/A   Mostly Cloudy
12:53 PM 45.0 °F 34.6 °F 23.0 °F 42% 29.82 in 10.0 mi NNW 34.5 mph 50.6 mph N/A   Mostly Cloudy
1:53 PM 46.9 °F - 23.0 °F 39% 29.84 in 10.0 mi NW 32.2 mph 52.9 mph N/A   Partly Cloudy
2:53 PM 45.0 °F 35.1 °F 24.1 °F 44% 29.87 in 10.0 mi NW 31.1 mph 51.8 mph N/A   Mostly Cloudy
3:53 PM 42.1 °F 32.3 °F 28.0 °F 58% 29.90 in 10.0 mi North 24.2 mph 39.1 mph 0.00 in   Overcast
4:38 PM 42.1 °F 32.1 °F 30.0 °F 62% 29.91 in 9.0 mi NW 25.3 mph 38.0 mph 0.00 in   Scattered Clouds
4:53 PM 44.1 °F 32.4 °F 25.0 °F 47% 29.91 in 10.0 mi NW 41.4 mph 57.5 mph 0.00 in   Partly Cloudy
5:53 PM 45.0 °F 33.8 °F 23.0 °F 42% 29.93 in 10.0 mi NNW 40.3 mph 54.1 mph N/A   Scattered Clouds
6:53 PM 42.1 °F 31.7 °F 27.0 °F 55% 29.97 in 10.0 mi NW 27.6 mph 46.0 mph 0.00 in   Scattered Clouds
7:53 PM 43.0 °F 32.2 °F 21.0 °F 42% 29.97 in 10.0 mi NW 32.2 mph 41.4 mph N/A   Clear
9:53 PM 42.1 °F 30.6 °F 25.0 °F 51% 30.04 in 10.0 mi NW 34.5 mph 50.6 mph N/A   Partly Cloudy
10:53 PM 39.9 °F 27.6 °F 28.9 °F 65% 30.07 in 10.0 mi NNW 34.5 mph 51.8 mph 0.00 in Rain Light Rain
11:53 PM 37.9 °F 24.7 °F 28.9 °F 70% 30.10 in 10.0 mi NW 35.7 mph 52.9 mph 0.00 in   Partly Cloudy